Home > Weather > Malabo > Past weeks

Flag for Equatorial Guinea Past Weather in Malabo, Equatorial Guinea — Yesterday and Last 2 Weeks

Now
77 °F

Passing clouds.


Feels Like: 78 °F
Forecast: 74 / 81 °F
Wind: 3 mph from Southwest

Location: Malabo/Fernando Poo

Current Time: Jul 28, 2016 at 9:28:25 PM

Latest Report: Jul 28, 2016 at 8:00 PM


Visibility: N/A

Pressure: 29.92 "Hg

Humidity: 83%

Dew Point: 72 °F

Location of MalaboLocation

Past Weather in Malabo — Graph

°F

Malabo Temperature Yesterday

Maximum temperature yesterday: 82 °F (at 10:00 AM)
Minimum temperature yesterday: 73 °F (at 1:00 AM)
Average temperature yesterday: 76 °F

High & Low Weather Summary for the Past Weeks

 TemperatureHumidityPressure
High86 °F (Jul 14, 1:00 PM)94% (Jul 14, 6:00 AM)30.01 "Hg (Jul 14, 6:00 AM)
Low70 °F (Jul 21, 4:00 AM)66% (Jul 19, 2:00 PM)29.86 "Hg (Jul 14, 4:00 PM)
Average77 °F86%29.93 "Hg
* Reported Jul 13 7:00 PM — Jul 28 7:00 PM, Malabo, Weather by CustomWeather, © 2016

Note: Actual official high and low records may vary slightly from our data, if they occured in-between our weather recording intervals... More about our weather records

Advertising

Malabo Weather History for the Previous 24 Hours

Scroll right to see more
 ConditionsComfort  
Time TempWeatherWind HumidityBarometerVisibility
7:00 PM
Thu, Jul 28
77 °FPassing clouds.6 mph83%29.92 "HgN/A
6:00 PM77 °FBroken clouds.7 mph83%29.92 "HgN/A
5:00 PM79 °FBroken clouds.9 mph84%29.92 "HgN/A
4:00 PM82 °FBroken clouds.7 mph79%29.92 "HgN/A
3:00 PM81 °FBroken clouds.5 mph79%29.92 "HgN/A
2:00 PM81 °FBroken clouds.6 mph84%29.95 "HgN/A
1:00 PM77 °FDrizzle. Partly sunny.5 mph89%29.95 "Hg3 mi
12:00 PM79 °FDrizzle. Partly sunny.9 mph89%29.98 "Hg5 mi
11:00 AM79 °FPartly sunny.8 mph89%29.98 "Hg5 mi
10:00 AM79 °FDrizzle. Partly sunny.2 mph89%29.98 "Hg5 mi
9:00 AM79 °FPartly sunny.3 mph89%29.98 "HgN/A
7:00 AM73 °FPartly sunny.No wind94%29.95 "HgN/A
6:00 AM73 °FPassing clouds.2 mph94%29.95 "HgN/A
5:00 AM73 °FPassing clouds.1 mph94%29.92 "HgN/A
4:00 AM73 °FPassing clouds.3 mph94%29.92 "HgN/A
3:00 AM73 °FPassing clouds.1 mph94%29.92 "HgN/A
2:00 AM73 °FPassing clouds.No wind94%29.92 "HgN/A
1:00 AM73 °FPassing clouds.No wind94%29.95 "HgN/A
12:00 AM73 °FPassing clouds.No wind94%29.95 "HgN/A
11:00 PM
Wed, Jul 27
73 °FPassing clouds.2 mph94%29.98 "HgN/A
10:00 PM73 °FPassing clouds.No wind94%29.95 "HgN/A
9:00 PM75 °FPartly cloudy.1 mph89%29.95 "HgN/A
Weather by CustomWeather, © 2016

See weather overviewHow to use our weather pages